Tracking 18843 objects as of 20-November-2017
HD Live streaming from Space Station
objects crossing your sky now

FENGYUN 1C DEB

Track FENGYUN 1C DEB now!
10-day predictions


NORAD ID: 30986
Int'l Code: 1999-025BCC
Perigee: 790.7 km
Apogee: 867.7 km
Inclination: 98.9 °
Period: 101.3 minutes
Semi major axis: 7200 km
RCS: 0.0079 m2 (small)
Launch date: May 10, 1999
Source: People's Republic of China (PRC)
Launch site: Taiyaun Space Center, China (TSC)

Note: This is SATELLITE DEBRIS
aabbcc
Your satellite tracking list
Your tracking list is empty




NASA's NSSDC Master Catalog

Two Line Element Set (TLE):
1 30986U 99025BCC 17319.89874137  .00000511  00000-0  25292-3 0  9999
2 30986  98.8517 350.8665 0053483 108.0805  14.8653 14.20970108553657
Source of the keplerian elements: AFSPC